• In Romania
  • List of Countries
  • For 7 days
  • Water Temperature
  • Satellite Maps
  • Weather Map
  • Weather Widgets
  • user-avatar
    Login

    Hourly Weather Djelfa

    Today, 27 June, Tuesday

    Time Temperature Precipitation Wind Pressure Humidity
    00:00 +29°C° 0 mm 3 mps 667 mmHg 34%
    01:00 +29°C° 0 mm 2 mps 667 mmHg 35%
    02:00 +28°C° 0 mm 2 mps 667 mmHg 35%
    03:00 +28°C° 0 mm 1 mps 666 mmHg 36%
    04:00 +28°C° 0 mm 2 mps 667 mmHg 35%
    05:00 +29°C° 0 mm 2 mps 667 mmHg 34%
    06:00 +29°C° 0 mm 2 mps 667 mmHg 33%
    07:00 +31°C° 0 mm 3 mps 667 mmHg 28%
    08:00 +33°C° 0 mm 4 mps 668 mmHg 23%
    09:00 +35°C° 0 mm 5 mps 668 mmHg 18%
    10:00 +36°C° 0.1 mm 6 mps 668 mmHg 16%
    11:00 +39°C° 0.1 mm 6 mps 668 mmHg 14%
    12:00 +40°C° 0.1 mm 7 mps 668 mmHg 12%
    13:00 +40°C° 0 mm 7 mps 668 mmHg 12%
    14:00 +40°C° 0 mm 7 mps 667 mmHg 11%
    15:00 +40°C° 0 mm 8 mps 667 mmHg 10%
    16:00 +40°C° 0 mm 7 mps 667 mmHg 11%
    17:00 +39°C° 0 mm 7 mps 666 mmHg 11%
    18:00 +39°C° 0 mm 7 mps 666 mmHg 12%
    19:00 +36°C° 0 mm 7 mps 666 mmHg 13%
    20:00 +35°C° 0 mm 7 mps 666 mmHg 14%
    21:00 +34°C° 0 mm 6 mps 666 mmHg 15%
    22:00 +32°C° 0 mm 6 mps 666 mmHg 19%
    23:00 +30°C° 0 mm 5 mps 666 mmHg 23%

    Tomorrow, 28 June, Wednesday

    Time Temperature Precipitation Wind Pressure Humidity
    00:00 +28°C° 0 mm 4 mps 666 mmHg 27%
    01:00 +28°C° 0 mm 3 mps 666 mmHg 32%
    02:00 +27°C° 0 mm 2 mps 665 mmHg 36%
    03:00 +26°C° 0 mm 1 mps 665 mmHg 40%
    04:00 +26°C° 0 mm 2 mps 665 mmHg 40%
    05:00 +26°C° 0 mm 2 mps 665 mmHg 40%
    06:00 +26°C° 0 mm 3 mps 665 mmHg 39%
    07:00 +27°C° 0 mm 3 mps 666 mmHg 35%
    08:00 +28°C° 0 mm 4 mps 666 mmHg 31%
    09:00 +30°C° 0 mm 4 mps 666 mmHg 27%
    10:00 +32°C° 0 mm 4 mps 666 mmHg 24%
    11:00 +33°C° 0 mm 4 mps 666 mmHg 21%
    12:00 +35°C° 0 mm 4 mps 666 mmHg 18%
    13:00 +36°C° 0 mm 5 mps 666 mmHg 16%
    14:00 +36°C° 0 mm 6 mps 666 mmHg 15%
    15:00 +38°C° 0 mm 6 mps 666 mmHg 13%
    16:00 +38°C° 0 mm 6 mps 665 mmHg 14%
    17:00 +36°C° 0 mm 6 mps 665 mmHg 14%
    18:00 +36°C° 0 mm 6 mps 665 mmHg 15%
    19:00 +33°C° 0 mm 7 mps 665 mmHg 19%
    20:00 +29°C° 0 mm 8 mps 665 mmHg 23%
    21:00 +27°C° 0 mm 8 mps 665 mmHg 28%
    22:00 +26°C° 0 mm 7 mps 665 mmHg 28%
    23:00 +24°C° 0 mm 7 mps 665 mmHg 27%

    Day after tomorrow, 29 June, Thursday

    Time Temperature Precipitation Wind Pressure Humidity
    00:00 +23°C° 0 mm 6 mps 665 mmHg 27%
    01:00 +22°C° 0 mm 6 mps 664 mmHg 27%
    02:00 +22°C° 0 mm 6 mps 664 mmHg 28%
    03:00 +21°C° 0 mm 5 mps 664 mmHg 28%
    04:00 +21°C° 0 mm 6 mps 664 mmHg 30%
    05:00 +21°C° 0 mm 6 mps 664 mmHg 32%
    06:00 +21°C° 0 mm 6 mps 664 mmHg 34%
    07:00 +22°C° 0 mm 6 mps 665 mmHg 31%
    08:00 +25°C° 0 mm 5 mps 665 mmHg 28%
    09:00 +27°C° 0 mm 4 mps 665 mmHg 25%
    10:00 +28°C° 0 mm 4 mps 666 mmHg 23%
    11:00 +30°C° 0 mm 3 mps 666 mmHg 20%
    12:00 +32°C° 0 mm 2 mps 666 mmHg 17%
    13:00 +34°C° 0 mm 3 mps 666 mmHg 15%
    14:00 +36°C° 0 mm 4 mps 665 mmHg 14%
    15:00 +37°C° 0 mm 5 mps 665 mmHg 12%
    16:00 +37°C° 0 mm 5 mps 665 mmHg 12%
    17:00 +37°C° 0 mm 5 mps 665 mmHg 12%
    18:00 +37°C° 0 mm 5 mps 664 mmHg 12%
    19:00 +35°C° 0 mm 5 mps 664 mmHg 15%
    20:00 +33°C° 0 mm 5 mps 664 mmHg 18%
    21:00 +30°C° 0 mm 5 mps 664 mmHg 21%
    22:00 +29°C° 0 mm 4 mps 664 mmHg 27%
    23:00 +27°C° 0 mm 3 mps 663 mmHg 34%

    30 June, Friday

    Time Temperature Precipitation Wind Pressure Humidity
    00:00 +26°C° 0 mm 2 mps 663 mmHg 41%
    01:00 +25°C° 0 mm 2 mps 663 mmHg 43%
    02:00 +25°C° 0 mm 3 mps 662 mmHg 45%
    03:00 +24°C° 0 mm 3 mps 662 mmHg 47%
    04:00 +24°C° 0 mm 3 mps 662 mmHg 44%
    05:00 +22°C° 0 mm 4 mps 662 mmHg 41%
    06:00 +22°C° 0 mm 4 mps 662 mmHg 38%
    07:00 +23°C° 0 mm 5 mps 663 mmHg 32%
    08:00 +25°C° 0 mm 5 mps 663 mmHg 26%
    09:00 +27°C° 0 mm 5 mps 664 mmHg 20%
    10:00 +28°C° 0 mm 5 mps 664 mmHg 19%
    11:00 +29°C° 0 mm 5 mps 664 mmHg 18%
    12:00 +32°C° 0 mm 4 mps 664 mmHg 17%
    13:00 +32°C° 0 mm 4 mps 664 mmHg 18%
    14:00 +33°C° 0 mm 5 mps 664 mmHg 18%
    15:00 +33°C° 0 mm 5 mps 663 mmHg 18%
    16:00 +33°C° 0 mm 6 mps 663 mmHg 19%
    17:00 +32°C° 0 mm 7 mps 663 mmHg 21%
    18:00 +31°C° 0 mm 8 mps 663 mmHg 22%
    19:00 +28°C° 0 mm 8 mps 664 mmHg 26%
    20:00 +26°C° 0 mm 9 mps 664 mmHg 30%
    21:00 +23°C° 0 mm 10 mps 665 mmHg 33%
    22:00 +22°C° 0 mm 9 mps 665 mmHg 37%
    23:00 +21°C° 0 mm 8 mps 664 mmHg 40%

    1 July, Saturday

    Time Temperature Precipitation Wind Pressure Humidity
    00:00 +20°C° 0 mm 8 mps 664 mmHg 43%
    01:00 +20°C° 0 mm 7 mps 664 mmHg 43%
    02:00 +18°C° 0 mm 7 mps 663 mmHg 42%
    03:00 +19°C° 0 mm 6 mps 663 mmHg 42%
    04:00 +19°C° 0 mm 6 mps 663 mmHg 39%
    05:00 +19°C° 0 mm 6 mps 664 mmHg 37%
    06:00 +19°C° 0 mm 6 mps 664 mmHg 34%
    07:00 +20°C° 0 mm 6 mps 664 mmHg 30%
    08:00 +22°C° 0 mm 6 mps 665 mmHg 25%
    09:00 +24°C° 0 mm 6 mps 666 mmHg 20%
    10:00 +26°C° 0 mm 6 mps 666 mmHg 19%
    11:00 +28°C° 0 mm 6 mps 666 mmHg 17%
    12:00 +30°C° 0 mm 6 mps 666 mmHg 15%
    13:00 +30°C° 0 mm 5 mps 666 mmHg 15%
    14:00 +32°C° 0 mm 4 mps 666 mmHg 15%
    15:00 +33°C° 0 mm 4 mps 666 mmHg 15%
    16:00 +32°C° 0 mm 4 mps 666 mmHg 17%
    17:00 +32°C° 0 mm 5 mps 666 mmHg 18%
    18:00 +30°C° 0 mm 5 mps 666 mmHg 19%
    19:00 +28°C° 0 mm 6 mps 666 mmHg 25%
    20:00 +26°C° 0 mm 7 mps 666 mmHg 32%
    21:00 +22°C° 0 mm 7 mps 666 mmHg 38%
    22:00 +22°C° 0 mm 7 mps 666 mmHg 39%
    23:00 +21°C° 0 mm 6 mps 666 mmHg 41%

    2 July, Sunday

    Time Temperature Precipitation Wind Pressure Humidity
    00:00 +20°C° 0 mm 6 mps 666 mmHg 42%
    01:00 +20°C° 0 mm 5 mps 666 mmHg 43%
    02:00 +19°C° 0 mm 4 mps 666 mmHg 43%
    03:00 +18°C° 0 mm 4 mps 666 mmHg 43%
    04:00 +19°C° 0 mm 4 mps 666 mmHg 43%
    05:00 +19°C° 0 mm 3 mps 666 mmHg 42%
    06:00 +19°C° 0 mm 3 mps 667 mmHg 42%
    07:00 +21°C° 0 mm 3 mps 667 mmHg 37%
    08:00 +22°C° 0 mm 3 mps 668 mmHg 32%
    09:00 +25°C° 0 mm 3 mps 668 mmHg 27%
    10:00 +27°C° 0 mm 3 mps 668 mmHg 25%
    11:00 +28°C° 0 mm 2 mps 668 mmHg 23%
    12:00 +30°C° 0 mm 2 mps 668 mmHg 21%
    13:00 +30°C° 0 mm 2 mps 668 mmHg 20%
    14:00 +31°C° 0 mm 2 mps 668 mmHg 18%
    15:00 +32°C° 0 mm 2 mps 668 mmHg 17%
    16:00 +32°C° 0 mm 2 mps 668 mmHg 17%
    17:00 +33°C° 0 mm 3 mps 668 mmHg 17%
    18:00 +31°C° 0 mm 3 mps 668 mmHg 16%
    19:00 +30°C° 0 mm 3 mps 668 mmHg 19%
    20:00 +29°C° 0 mm 4 mps 668 mmHg 22%
    21:00 +27°C° 0 mm 4 mps 668 mmHg 25%
    22:00 +26°C° 0 mm 4 mps 668 mmHg 29%
    23:00 +25°C° 0 mm 3 mps 668 mmHg 33%
    Show more